ELEKTRO-L 5

Last updated on Sun Apr 12 2026 00:02:57 GMT+0000 (Coordinated Universal Time)

1 67756U 26028A 26101.23465176 -.00000097 00000+0 00000+0 0 9998 2 67756 0.3944 294.6371 0000672 197.9721 227.3943 1.00271797 583
UTC large
Height (km)
Speed (km/s)
/
Latitude / Longitude
Inclination (degrees)
Orbital Period (minutes)
Azimuth
Elevation
Range (km)
Doppler Factor

Next 0 passes for location: London (51.5072 / 0.1276)

Sorry there are no passes over London.
ELEKTRO-L 5